カタログに戻る

CZ-6A DEB

運用中SSO
NORAD 54916·DEBRIS·🇨🇳 China

打ち上げ Nov 11, 2022 から Taiyuan Satellite Launch Center

Loading…

次のパス (今後24時間)

TLE

最新Source: Space-Track

元期: Sep 13, 2026, 23:40 UTC

1 54916U 22151RD  26256.98644108  .00000331  00000-0  20918-3 0  9997
2 54916  98.8579 256.0201 0051302  95.0022 265.7008 14.10143037194037

AllMySatでCZ-6A DEBをリアルタイム追跡

Download on the App Store